[[{"header":{"parameterUnit":"m.s-1","parameterCategory":2,"la1":30.2991,"la2":30.254,"lo1":-89.0895,"lo2":-89.0444,"dy":0.0017,"dx":0.0017,"nx":28,"ny":28,"refTime":"2024-06-17T21:00:00:Z","depth":"0","parameterNumber":2,"parameterNumberName":"U-component_of_CURRENTS"},"data":[0,0,0,0,0,0,0,0,0,0,0,0,0,0,0,0,0,0,0,0,0,0,0,0,0,0,0,0,0,0,0,0,0,0,0,0,0,0,0,0,0,0,0,0,0,0,0,0,0,0,0,0,0,0,0,0,0,0,-0.235,-0.235,0,-0.2345,-0.2345,-0.2344,-0.2338,-0.2338,-0.2338,-0.2339,-0.2269,-0.2267,-0.2265,0,0,0,0,0,0,0,0,0,0,0,0,0,-0.2294,-0.2295,-0.235,-0.235,-0.2351,-0.2345,-0.2345,-0.2344,-0.2338,-0.2338,-0.2338,-0.2339,-0.227,-0.2268,-0.2265,0,0,0,0,0,0,0,0,0,0,0,0,0,-0.2304,-0.2295,-0.235,-0.2349,-0.2349,-0.2345,-0.2345,-0.2344,-0.2338,-0.2338,-0.2339,-0.2339,-0.2271,-0.2268,-0.2265,-0.2241,0,0,-0.2256,-0.2254,0,0,0,0,0,0,0,0,-0.2303,-0.2305,-0.2349,-0.2349,-0.2349,-0.2345,-0.23,-0.2308,-0.2338,-0.2339,-0.2339,-0.2339,-0.229,-0.2286,-0.2281,-0.2238,-0.2235,-0.2255,-0.2253,-0.2252,-0.2251,0,0,0,0,0,0,0,-0.2302,-0.2305,-0.2345,-0.2349,-0.2349,-0.2328,-0.233,-0.2301,-0.231,-0.2339,-0.2339,-0.2343,-0.229,-0.2284,-0.2279,-0.2234,-0.2255,-0.2253,-0.2251,-0.225,-0.2198,-0.2198,0,0,0,0,0,0,-0.2312,-0.2305,-0.2345,-0.2345,-0.233,-0.2329,-0.2331,-0.2344,-0.2312,-0.2308,-0.2343,-0.2343,-0.2289,-0.2283,-0.2277,-0.2304,-0.2252,-0.2249,-0.2248,-0.2197,-0.2198,-0.2198,0,0,0,0,0,0,-0.2311,-0.2316,-0.2346,-0.2327,-0.2329,-0.2331,-0.2344,-0.2344,-0.2346,-0.2316,-0.2311,-0.2348,-0.2289,-0.2281,-0.2264,-0.2299,-0.2248,-0.2245,-0.2197,-0.2197,-0.2198,-0.2321,0,0,0,0,0,0,-0.231,-0.2316,-0.2324,-0.2328,-0.2331,-0.2368,-0.2344,-0.2343,-0.2349,-0.2349,-0.2318,-0.2312,-0.2288,-0.2268,-0.2261,-0.2294,-0.2243,-0.2196,-0.2197,-0.2198,-0.2317,-0.2326,-0.2334,0,0,0,0,0,-0.2308,-0.2336,-0.2325,-0.233,-0.2344,-0.2369,-0.2369,-0.2368,-0.235,-0.2367,-0.2336,-0.2313,-0.2268,-0.2266,-0.2257,-0.229,-0.2196,-0.2197,-0.2198,-0.2313,-0.2324,-0.2334,0,0,0,0,0,0,-0.2321,-0.2338,-0.2326,-0.2358,-0.2368,-0.237,-0.2384,-0.2372,-0.2361,-0.2353,-0.2315,-0.2308,-0.2306,-0.2271,-0.227,-0.2274,-0.2229,-0.2228,-0.2319,-0.233,-0.2338,-0.2346,-0.224,0,0,0,0,0,-0.2324,-0.2347,-0.2356,-0.238,-0.2388,-0.238,-0.2386,-0.2385,-0.2377,-0.2372,-0.2348,-0.2317,-0.2301,-0.2294,-0.2269,-0.2268,-0.2256,-0.2281,-0.229,-0.2298,-0.2295,-0.2311,-0.2322,-0.2201,-0.2201,-0.2201,0,0,-0.2333,-0.2347,-0.2357,-0.2383,-0.2386,-0.2418,-0.2385,-0.2406,-0.2429,-0.2364,-0.2378,-0.2343,-0.2304,-0.2312,-0.2308,-0.229,-0.2331,-0.2299,-0.2307,-0.2299,-0.2314,-0.2326,-0.2336,-0.2202,-0.2202,-0.2202,0,0,-0.2374,-0.2376,-0.2411,-0.2428,-0.2445,-0.2446,-0.2456,-0.2459,-0.2459,-0.2461,-0.2424,-0.241,-0.2379,-0.237,-0.2358,-0.2392,-0.2373,-0.2383,-0.2442,-0.2459,-0.247,-0.2479,-0.2511,-0.2522,-0.2394,-0.2394,-0.2394,0,-0.2381,-0.2427,-0.2425,-0.2467,-0.2487,-0.2465,-0.2508,-0.251,-0.2505,-0.2507,-0.2481,-0.2447,-0.2411,-0.2431,-0.2441,-0.2417,-0.2423,-0.2415,-0.2475,-0.2483,-0.249,-0.252,-0.253,-0.24,-0.2399,-0.2399,-0.2398,0,-0.2446,-0.2486,-0.2512,-0.2556,-0.2577,-0.2611,-0.2618,-0.2629,-0.2612,-0.2606,-0.261,-0.2563,-0.2541,-0.2536,-0.2495,-0.2533,-0.2521,-0.2486,-0.2459,-0.2511,-0.2538,-0.2547,-0.2409,-0.2406,-0.2405,-0.2403,0,0,-0.2449,-0.254,-0.2547,-0.2581,-0.2625,-0.2647,-0.2693,-0.2722,-0.2744,-0.2728,-0.2751,-0.2721,-0.2679,-0.2659,-0.2617,-0.2627,-0.2687,-0.258,-0.2578,-0.263,-0.2743,-0.2778,-0.2791,-0.2669,-0.2671,-0.2672,-0.2754,0,-0.2496,-0.2592,-0.2625,-0.2704,-0.2749,-0.2759,-0.2803,-0.2823,-0.2822,-0.2835,-0.2799,-0.2793,-0.2734,-0.2718,-0.2723,-0.2679,-0.271,-0.2669,-0.2666,-0.2666,-0.2707,-0.2802,-0.2824,-0.2902,-0.2762,-0.2763,-0.2764,0,-0.2536,-0.2599,-0.2687,-0.2777,-0.2796,-0.2832,-0.2883,-0.2918,-0.2939,-0.2937,-0.2934,-0.2897,-0.2894,-0.2829,-0.2829,-0.2807,-0.2785,-0.2763,-0.2765,-0.2756,-0.2717,-0.2817,-0.2923,-0.2936,-0.2777,-0.2776,-0.2775,0,-0.2517,-0.2636,-0.2703,-0.2733,-0.283,-0.2858,-0.2895,-0.2936,-0.2968,-0.2986,-0.3008,-0.2998,-0.2985,-0.2963,-0.2907,-0.2872,-0.2915,-0.2862,-0.289,-0.2892,-0.2887,-0.2887,-0.3017,-0.2887,-0.2887,-0.2887,-0.2886,0,-0.2542,-0.2594,-0.2695,-0.2727,-0.2795,-0.2855,-0.2912,-0.2947,-0.3002,-0.3049,-0.304,-0.3073,-0.3015,-0.3023,-0.2966,-0.2971,-0.297,-0.2927,-0.2925,-0.2933,-0.2935,-0.2922,-0.2897,-0.289,-0.2889,-0.2888,-0.2888,0,-0.2502,-0.2575,-0.2649,-0.2754,-0.2783,-0.2815,-0.2914,-0.2961,-0.3019,-0.308,-0.309,-0.3135,-0.3154,-0.3122,-0.3095,-0.3061,-0.3043,-0.3049,-0.3073,-0.3072,-0.3102,-0.3081,-0.3113,-0.3072,-0.3106,-0.3107,-0.3108,0,-0.249,-0.2525,-0.2633,-0.2666,-0.2707,-0.2776,-0.2831,-0.2931,-0.2986,-0.3119,-0.3144,-0.3209,-0.3251,-0.3261,-0.3223,-0.3202,-0.3116,-0.3195,-0.3127,-0.3144,-0.3118,-0.304,-0.2995,-0.3178,-0.3179,-0.3181,-0.3182,0,-0.2445,-0.2473,-0.2524,-0.2599,-0.2656,-0.2739,-0.2822,-0.2884,-0.3013,-0.3103,-0.3228,-0.329,-0.3356,-0.3387,-0.337,-0.3306,-0.3182,-0.3224,-0.3234,-0.3196,-0.3125,-0.3071,-0.3088,-0.3195,-0.3193,-0.3192,-0.3192,-0.3191,-0.2373,-0.2389,-0.2444,-0.2503,-0.258,-0.2662,-0.2675,-0.282,-0.2926,-0.3056,-0.322,-0.3348,-0.3486,-0.3484,-0.3445,-0.3406,-0.3291,-0.3334,-0.3313,-0.3236,-0.3184,-0.3247,-0.3348,-0.3348,-0.3347,-0.3347,-0.3347,0,-0.2269,-0.2295,-0.2349,-0.2402,-0.2433,-0.2517,-0.2628,-0.2624,-0.2718,-0.2984,-0.3123,-0.3447,-0.3541,-0.3602,-0.3636,-0.3542,-0.3408,-0.3438,-0.3336,-0.3286,-0.3361,-0.3353,-0.3471,-0.3471,-0.3471,-0.3471,-0.3471,-0.3471,-0.2204,-0.22,-0.2233,-0.2221,-0.2259,-0.2231,-0.2259,-0.2312,-0.2447,-0.2697,-0.2986,-0.3238,-0.3382,-0.3793,-0.3765,-0.363,-0.3481,-0.3418,-0.3349,-0.3429,-0.3416,-0.3405,-0.3395,-0.3519,-0.3519,-0.3242,-0.3241,-0.3239]},{"header":{"parameterUnit":"m.s-1","parameterCategory":2,"la1":30.2991,"la2":30.254,"lo1":-89.0895,"lo2":-89.0444,"dy":0.0017,"dx":0.0017,"nx":28,"ny":28,"refTime":"2024-06-17T21:00:00:Z","depth":"0","parameterNumber":3,"parameterNumberName":"V-component_of_CURRENTS"},"data":[0,0,0,0,0,0,0,0,0,0,0,0,0,0,0,0,0,0,0,0,0,0,0,0,0,0,0,0,0,0,0,0,0,0,0,0,0,0,0,0,0,0,0,0,0,0,0,0,0,0,0,0,0,0,0,0,0,0,-0.0182,-0.0181,0,-0.0047,-0.0046,-0.0044,0.0022,0.0022,0.0022,0.0023,0.0103,0.0105,0.0107,0,0,0,0,0,0,0,0,0,0,0,0,0,-0.0329,-0.0328,-0.0182,-0.0181,-0.0179,-0.0047,-0.0046,-0.0044,0.0022,0.0022,0.0022,0.0023,0.0102,0.0104,0.0107,0,0,0,0,0,0,0,0,0,0,0,0,0,-0.0239,-0.0327,-0.0183,-0.0129,-0.0122,-0.0048,-0.0046,-0.0044,0.0022,0.0022,0.0023,0.0023,0.0101,0.0104,0.0107,0.0122,0,0,0.0116,0.0118,0,0,0,0,0,0,0,0,-0.0244,-0.0234,-0.0139,-0.0132,-0.0125,-0.0028,-0.0068,0.0009,0.0022,-0.0034,0.0023,0.0023,0.0055,0.0062,0.0085,0.0125,0.0129,0.0117,0.0118,0.012,0.0121,0,0,0,0,0,0,0,-0.0251,-0.0239,-0.013,-0.0137,-0.0128,-0.0093,-0.008,-0.0053,0.0005,-0.003,-0.0024,-0.0006,0.0058,0.0082,0.0087,0.013,0.0117,0.0119,0.0121,0.0122,0.0217,0.0217,0,0,0,0,0,0,-0.0267,-0.0245,-0.0135,-0.0126,-0.0184,-0.009,-0.0076,-0.0061,0.0006,0.0018,-0.0007,-0.0004,0.0077,0.0084,0.009,0.0138,0.012,0.0123,0.0124,0.0216,0.0217,0.0218,0,0,0,0,0,0,-0.0271,-0.0258,-0.014,-0.0181,-0.0164,-0.0088,-0.0071,-0.0058,-0.0032,0.0024,0.0034,0.0006,0.0077,0.0086,0.0129,0.0141,0.0124,0.0127,0.0215,0.0216,0.0217,0.0216,0,0,0,0,0,0,-0.0275,-0.0261,-0.026,-0.0182,-0.0162,-0.0098,-0.007,-0.0055,-0.0021,-0.0016,0.0039,0.0047,0.0078,0.0125,0.0132,0.0144,0.0129,0.0214,0.0216,0.0217,0.0215,0.0217,0.0219,0,0,0,0,0,-0.0281,-0.0281,-0.0261,-0.0248,-0.0162,-0.0098,-0.0084,-0.0031,-0.0021,-0.0008,0.0037,0.0045,0.0138,0.0128,0.0137,0.015,0.0214,0.0215,0.0217,0.0215,0.0217,0.0219,0,0,0,0,0,0,-0.0346,-0.0272,-0.0249,-0.0227,-0.0168,-0.0086,-0.0073,-0.0036,0.0011,0.001,0.0058,0.007,0.0111,0.0129,0.0117,0.0181,0.0175,0.0178,0.0171,0.0173,0.0174,0.0157,0.0131,0,0,0,0,0,-0.0361,-0.0343,-0.0262,-0.0247,-0.0221,-0.015,-0.012,-0.0081,-0.0026,-0.0005,0.0039,0.0081,0.0124,0.0147,0.0182,0.0217,0.0238,0.023,0.0232,0.0233,0.0225,0.0275,0.0281,0.0223,0.0223,0.0223,0,0,-0.0384,-0.034,-0.0331,-0.026,-0.0215,-0.0176,-0.0132,-0.009,-0.0054,-0.0006,0.0043,0.0085,0.0134,0.0181,0.0199,0.0198,0.0262,0.0235,0.0236,0.0227,0.0277,0.0283,0.0288,0.0224,0.0224,0.0224,0,0,-0.0418,-0.0381,-0.0375,-0.0326,-0.0258,-0.0205,-0.0195,-0.0112,-0.0074,-0.0018,0.0027,0.008,0.0139,0.0191,0.022,0.0249,0.0267,0.0253,0.0253,0.0302,0.0307,0.0312,0.0352,0.0361,0.0257,0.0257,0.0257,0,-0.0451,-0.0425,-0.0364,-0.0338,-0.0303,-0.0222,-0.0201,-0.0144,-0.0056,-0.0022,-0.0009,0.0107,0.0147,0.022,0.0235,0.0253,0.0277,0.0242,0.0304,0.0309,0.0313,0.0354,0.0363,0.0257,0.0257,0.0257,0.0257,0,-0.0471,-0.0448,-0.044,-0.038,-0.0333,-0.0303,-0.0212,-0.0165,-0.0113,-0.0049,0.0029,0.0103,0.017,0.0197,0.0226,0.0286,0.029,0.0297,0.0296,0.0319,0.0361,0.037,0.0258,0.0258,0.0258,0.0258,0,0,-0.0552,-0.0473,-0.0471,-0.045,-0.0353,-0.0318,-0.0254,-0.0168,-0.0127,-0.0039,0.002,0.0115,0.0157,0.0192,0.0245,0.0295,0.0358,0.0306,0.0308,0.0341,0.0461,0.0538,0.0556,0.0374,0.0375,0.0377,0.0478,0,-0.0588,-0.0573,-0.0504,-0.0475,-0.0459,-0.0356,-0.0302,-0.0213,-0.0129,-0.0051,0.0047,0.0115,0.0156,0.019,0.025,0.0332,0.0381,0.0329,0.0437,0.044,0.0503,0.0569,0.0654,0.0759,0.0488,0.0489,0.0491,0,-0.063,-0.0613,-0.0605,-0.0527,-0.0508,-0.0469,-0.0368,-0.0307,-0.0171,-0.0107,-0.0008,0.0074,0.0181,0.0198,0.0352,0.0315,0.0379,0.0439,0.0445,0.0521,0.0536,0.0692,0.0786,0.0999,0.0505,0.0504,0.0503,0,-0.0736,-0.0677,-0.0679,-0.0653,-0.0554,-0.0522,-0.0464,-0.0337,-0.0284,-0.0145,-0.0091,0.0052,0.0124,0.0231,0.0378,0.0359,0.0538,0.0529,0.066,0.0665,0.0762,0.0774,0.1071,0.0619,0.0619,0.0619,0.0619,0,-0.0807,-0.0802,-0.0732,-0.0733,-0.0725,-0.0617,-0.0579,-0.0492,-0.0369,-0.0304,-0.0141,-0.005,0.0133,0.0273,0.0379,0.0571,0.0545,0.0677,0.0708,0.0765,0.0776,0.0982,0.1042,0.0623,0.0622,0.0621,0.062,0,-0.0919,-0.0873,-0.087,-0.0796,-0.0778,-0.0776,-0.0677,-0.0641,-0.0505,-0.0413,-0.0372,-0.0128,0.0083,0.0273,0.0473,0.0584,0.0869,0.0804,0.0862,0.09,0.1218,0.1272,0.154,0.1587,0.097,0.0972,0.0975,0,-0.0972,-0.0989,-0.0951,-0.0967,-0.0936,-0.0911,-0.0891,-0.0747,-0.0686,-0.0452,-0.041,-0.0161,0.0053,0.0411,0.0665,0.0907,0.0996,0.109,0.1077,0.1279,0.1363,0.1385,0.1404,0.1202,0.1206,0.1209,0.1212,0,-0.1076,-0.1063,-0.1066,-0.1114,-0.111,-0.1088,-0.103,-0.0996,-0.0804,-0.0674,-0.044,-0.024,0.019,0.0601,0.0941,0.1048,0.1256,0.1163,0.1371,0.1581,0.1627,0.1672,0.1078,0.1241,0.1238,0.1236,0.1234,0.1233,-0.1153,-0.1192,-0.1212,-0.1255,-0.1261,-0.1246,-0.1229,-0.1114,-0.0994,-0.0742,-0.0496,-0.0119,0.0547,0.1092,0.1233,0.1633,0.1504,0.1735,0.1785,0.179,0.1855,0.1324,0.1523,0.1522,0.1521,0.152,0.1519,0,-0.1244,-0.1289,-0.135,-0.1382,-0.1419,-0.1375,-0.1307,-0.1247,-0.1101,-0.0765,-0.0473,0.0367,0.0987,0.1502,0.2132,0.2295,0.2242,0.2342,0.2413,0.2393,0.1954,0.1987,0.23,0.23,0.2299,0.2299,0.2299,0.2299,-0.1295,-0.1386,-0.1422,-0.1521,-0.1535,-0.1538,-0.1499,-0.136,-0.1115,-0.0577,-0.0048,0.0369,0.127,0.2468,0.2982,0.2925,0.3012,0.2989,0.2999,0.2748,0.2695,0.2644,0.2697,0.3152,0.3153,0.3422,0.3425,0.3428]}],[{"header":{"parameterUnit":"m.s-1","parameterCategory":2,"la1":30.2991,"la2":30.254,"lo1":-89.0895,"lo2":-89.0444,"dy":0.0017,"dx":0.0017,"nx":28,"ny":28,"refTime":"2024-06-17T21:00:00:Z","depth":"2","parameterNumber":2,"parameterNumberName":"U-component_of_CURRENTS"},"data":[0,0,0,0,0,0,0,0,0,0,0,0,0,0,0,0,0,0,0,0,0,0,0,0,0,0,0,0,0,0,0,0,0,0,0,0,0,0,0,0,0,0,0,0,0,0,0,0,0,0,0,0,0,0,0,0,0,0,-0.2282,-0.2282,0,-0.2276,-0.2276,-0.2276,-0.227,-0.227,-0.2271,-0.2271,-0.2203,-0.2201,-0.2199,0,0,0,0,0,0,0,0,0,0,0,0,0,-0.2227,-0.2228,-0.2282,-0.2282,-0.2282,-0.2276,-0.2276,-0.2275,-0.227,-0.227,-0.2271,-0.2271,-0.2203,-0.2201,-0.2199,0,0,0,0,0,0,0,0,0,0,0,0,0,-0.2236,-0.2229,-0.2282,-0.2281,-0.2281,-0.2276,-0.2276,-0.2275,-0.227,-0.227,-0.2271,-0.2271,-0.2204,-0.2201,-0.2198,-0.2174,0,0,-0.2189,-0.2188,0,0,0,0,0,0,0,0,-0.2236,-0.2238,-0.2281,-0.2281,-0.2281,-0.2277,-0.2232,-0.2239,-0.227,-0.2271,-0.2271,-0.2271,-0.2223,-0.2219,-0.2214,-0.217,-0.2168,-0.2189,-0.2187,-0.2186,-0.2185,0,0,0,0,0,0,0,-0.2235,-0.2238,-0.2277,-0.2281,-0.2282,-0.226,-0.2262,-0.2233,-0.2242,-0.2271,-0.2271,-0.2275,-0.2223,-0.2217,-0.2212,-0.2167,-0.2189,-0.2186,-0.2184,-0.2183,-0.2132,-0.2132,0,0,0,0,0,0,-0.2245,-0.2238,-0.2277,-0.2277,-0.2262,-0.2261,-0.2263,-0.2276,-0.2244,-0.2241,-0.2275,-0.2275,-0.2222,-0.2216,-0.221,-0.2237,-0.2186,-0.2183,-0.2181,-0.2131,-0.2132,-0.2132,0,0,0,0,0,0,-0.2244,-0.2249,-0.2277,-0.2259,-0.2261,-0.2263,-0.2276,-0.2275,-0.2279,-0.2248,-0.2243,-0.2281,-0.2222,-0.2214,-0.2197,-0.2232,-0.2182,-0.2179,-0.2131,-0.2131,-0.2132,-0.2255,0,0,0,0,0,0,-0.2243,-0.2249,-0.2257,-0.226,-0.2263,-0.2299,-0.2276,-0.2275,-0.2282,-0.2282,-0.2251,-0.2245,-0.2221,-0.2202,-0.2194,-0.2227,-0.2177,-0.213,-0.2131,-0.2132,-0.225,-0.226,-0.2268,0,0,0,0,0,-0.2241,-0.2269,-0.2258,-0.2263,-0.2276,-0.2301,-0.2301,-0.2299,-0.2282,-0.2299,-0.2269,-0.2246,-0.2201,-0.22,-0.2191,-0.2224,-0.213,-0.2131,-0.2132,-0.2247,-0.2258,-0.2268,0,0,0,0,0,0,-0.2254,-0.2271,-0.2259,-0.2291,-0.2301,-0.2302,-0.2316,-0.2304,-0.2293,-0.2287,-0.2248,-0.2241,-0.224,-0.2205,-0.2204,-0.2208,-0.2163,-0.2162,-0.2253,-0.2263,-0.2272,-0.228,-0.2174,0,0,0,0,0,-0.2258,-0.2281,-0.2289,-0.2313,-0.2321,-0.2313,-0.2318,-0.2317,-0.2309,-0.2305,-0.2281,-0.225,-0.2234,-0.2228,-0.2202,-0.2202,-0.219,-0.2215,-0.2224,-0.2232,-0.2229,-0.2245,-0.2256,-0.2135,-0.2135,-0.2135,0,0,-0.2267,-0.228,-0.2291,-0.2316,-0.2319,-0.235,-0.2318,-0.2339,-0.2361,-0.2297,-0.2311,-0.2277,-0.2237,-0.2245,-0.2242,-0.2224,-0.2265,-0.2233,-0.2241,-0.2233,-0.2247,-0.2259,-0.227,-0.2136,-0.2136,-0.2136,0,0,-0.2308,-0.231,-0.2345,-0.2361,-0.2378,-0.2379,-0.2389,-0.2392,-0.2392,-0.2395,-0.2358,-0.2344,-0.2313,-0.2304,-0.2292,-0.2326,-0.2306,-0.2317,-0.2376,-0.2393,-0.2404,-0.2413,-0.2444,-0.2455,-0.2328,-0.2328,-0.2328,0,-0.2316,-0.2361,-0.2358,-0.24,-0.242,-0.2398,-0.244,-0.2443,-0.2438,-0.244,-0.2415,-0.2381,-0.2346,-0.2365,-0.2374,-0.235,-0.2357,-0.2349,-0.2408,-0.2417,-0.2424,-0.2453,-0.2464,-0.2334,-0.2333,-0.2333,-0.2332,0,-0.238,-0.2419,-0.2445,-0.2488,-0.2509,-0.2543,-0.255,-0.2561,-0.2545,-0.2539,-0.2543,-0.2496,-0.2475,-0.247,-0.2429,-0.2467,-0.2455,-0.2419,-0.2392,-0.2445,-0.2471,-0.248,-0.2343,-0.234,-0.2339,-0.2337,0,0,-0.2384,-0.2473,-0.248,-0.2514,-0.2557,-0.2578,-0.2624,-0.2653,-0.2675,-0.266,-0.2683,-0.2653,-0.2612,-0.2592,-0.255,-0.256,-0.2621,-0.2514,-0.2512,-0.2564,-0.2677,-0.271,-0.2722,-0.2603,-0.2604,-0.2605,-0.2687,0,-0.243,-0.2525,-0.2557,-0.2635,-0.2679,-0.2689,-0.2733,-0.2753,-0.2752,-0.2766,-0.273,-0.2725,-0.2667,-0.2651,-0.2657,-0.2612,-0.2644,-0.2602,-0.2599,-0.2599,-0.2639,-0.2733,-0.2439,-0.249,-0.2695,-0.2696,-0.2697,0,-0.247,-0.2532,-0.2619,-0.2707,-0.2726,-0.2762,-0.2813,-0.2848,-0.2869,-0.2868,-0.2864,-0.2828,-0.2826,-0.2762,-0.2762,-0.274,-0.2718,-0.2697,-0.2699,-0.2688,-0.2649,-0.2461,-0.2498,-0.2712,-0.271,-0.2709,-0.2708,0,-0.2452,-0.2569,-0.2635,-0.2664,-0.2759,-0.2789,-0.2825,-0.2866,-0.2898,-0.2917,-0.2938,-0.2929,-0.2917,-0.2895,-0.284,-0.2805,-0.2847,-0.2794,-0.2821,-0.2824,-0.2549,-0.2526,-0.282,-0.2819,-0.2819,-0.2819,-0.2819,0,-0.2477,-0.2528,-0.2628,-0.2659,-0.2726,-0.2787,-0.2844,-0.2878,-0.2933,-0.2979,-0.2971,-0.3004,-0.2947,-0.2955,-0.2898,-0.2903,-0.2902,-0.2858,-0.2856,-0.2588,-0.2568,-0.272,-0.2707,-0.2822,-0.2821,-0.2821,-0.282,0,-0.2438,-0.251,-0.2583,-0.2686,-0.2715,-0.2748,-0.2846,-0.2892,-0.2951,-0.3011,-0.3022,-0.3066,-0.3085,-0.3053,-0.3026,-0.2992,-0.2977,-0.2979,-0.2687,-0.2651,-0.293,-0.2922,-0.303,-0.3032,-0.3034,-0.3036,-0.3037,0,-0.2426,-0.2461,-0.2568,-0.2601,-0.2641,-0.2711,-0.2765,-0.2864,-0.2918,-0.305,-0.3074,-0.3138,-0.3165,-0.3174,-0.3057,-0.3013,-0.3053,-0.2793,-0.2683,-0.297,-0.2956,-0.2945,-0.2935,-0.2361,-0.2357,-0.2353,-0.2351,0,-0.2381,-0.241,-0.246,-0.2535,-0.2592,-0.2673,-0.2755,-0.2816,-0.2944,-0.3017,-0.314,-0.3188,-0.318,-0.3006,-0.2956,-0.2869,-0.2775,-0.2729,-0.3077,-0.2387,-0.2354,-0.2337,-0.2345,-0.2318,-0.2322,-0.2324,-0.2326,-0.2327,-0.2311,-0.2327,-0.2381,-0.244,-0.2517,-0.2596,-0.2608,-0.2687,-0.2769,-0.2773,-0.3016,-0.2948,-0.2947,-0.2694,-0.2611,-0.2492,-0.2668,-0.2535,-0.2537,-0.2546,-0.2487,-0.2463,-0.2437,-0.244,-0.2443,-0.2446,-0.2449,0,-0.2181,-0.2234,-0.2287,-0.234,-0.2335,-0.2454,-0.2562,-0.245,-0.244,-0.2515,-0.255,-0.232,-0.2298,-0.2285,-0.2063,-0.2104,-0.1965,-0.2031,-0.1821,-0.1856,-0.1886,-0.1785,-0.1553,-0.155,-0.1548,-0.1546,0,0,-0.211,-0.2092,-0.2125,-0.2093,-0.2155,-0.2056,-0.2081,-0.1946,-0.1891,-0.1735,-0.1715,-0.1973,-0.2153,-0.1801,-0.1778,-0.1631,-0.1689,-0.1533,-0.2241,-0.2018,-0.2044,-0.2167,-0.2054,0,0,0,0,0]},{"header":{"parameterUnit":"m.s-1","parameterCategory":2,"la1":30.2991,"la2":30.254,"lo1":-89.0895,"lo2":-89.0444,"dy":0.0017,"dx":0.0017,"nx":28,"ny":28,"refTime":"2024-06-17T21:00:00:Z","depth":"2","parameterNumber":3,"parameterNumberName":"V-component_of_CURRENTS"},"data":[0,0,0,0,0,0,0,0,0,0,0,0,0,0,0,0,0,0,0,0,0,0,0,0,0,0,0,0,0,0,0,0,0,0,0,0,0,0,0,0,0,0,0,0,0,0,0,0,0,0,0,0,0,0,0,0,0,0,-0.0167,-0.0166,0,-0.0033,-0.0031,-0.003,0.0036,0.0036,0.0036,0.0036,0.0116,0.0118,0.012,0,0,0,0,0,0,0,0,0,0,0,0,0,-0.0314,-0.0312,-0.0167,-0.0166,-0.0164,-0.0033,-0.0031,-0.003,0.0036,0.0036,0.0036,0.0036,0.0116,0.0118,0.0121,0,0,0,0,0,0,0,0,0,0,0,0,0,-0.0224,-0.0311,-0.0168,-0.0114,-0.0108,-0.0033,-0.0031,-0.0029,0.0036,0.0036,0.0036,0.0036,0.0115,0.0118,0.0121,0.0136,0,0,0.013,0.0132,0,0,0,0,0,0,0,0,-0.0229,-0.0219,-0.0124,-0.0118,-0.0111,-0.0014,-0.0053,0.0024,0.0036,-0.0021,0.0036,0.0036,0.0069,0.0076,0.0099,0.014,0.0143,0.013,0.0132,0.0134,0.0134,0,0,0,0,0,0,0,-0.0235,-0.0224,-0.0116,-0.0122,-0.0114,-0.0078,-0.0066,-0.0038,0.0019,-0.0016,-0.001,0.0007,0.0072,0.0096,0.0101,0.0144,0.013,0.0133,0.0135,0.0136,0.0231,0.0232,0,0,0,0,0,0,-0.0251,-0.023,-0.012,-0.0112,-0.0169,-0.0076,-0.0062,-0.0046,0.002,0.0032,0.0007,0.001,0.0091,0.0098,0.0104,0.0152,0.0134,0.0136,0.0138,0.023,0.0231,0.0232,0,0,0,0,0,0,-0.0255,-0.0243,-0.0125,-0.0166,-0.0149,-0.0074,-0.0056,-0.0044,-0.0018,0.0038,0.0048,0.002,0.0091,0.01,0.0143,0.0154,0.0138,0.0141,0.023,0.0231,0.0232,0.023,0,0,0,0,0,0,-0.026,-0.0245,-0.0245,-0.0168,-0.0147,-0.0083,-0.0056,-0.0041,-0.0007,-0.0002,0.0052,0.0061,0.0092,0.0139,0.0146,0.0158,0.0143,0.0229,0.023,0.0231,0.0229,0.0231,0.0233,0,0,0,0,0,-0.0266,-0.0266,-0.0246,-0.0233,-0.0147,-0.0083,-0.0069,-0.0017,-0.0007,0.0006,0.0051,0.0059,0.0152,0.0142,0.0151,0.0164,0.0228,0.023,0.0231,0.0229,0.0231,0.0233,0,0,0,0,0,0,-0.033,-0.0257,-0.0234,-0.0212,-0.0153,-0.0071,-0.0058,-0.0022,0.0025,0.0023,0.0072,0.0084,0.0124,0.0143,0.0131,0.0195,0.0189,0.0193,0.0184,0.0187,0.0188,0.0171,0.0145,0,0,0,0,0,-0.0345,-0.0327,-0.0247,-0.0232,-0.0206,-0.0135,-0.0106,-0.0067,-0.0012,0.0009,0.0053,0.0095,0.0138,0.0161,0.0196,0.0231,0.0252,0.0244,0.0246,0.0247,0.0239,0.0289,0.0294,0.0237,0.0237,0.0237,0,0,-0.0368,-0.0324,-0.0315,-0.0244,-0.02,-0.0161,-0.0118,-0.0076,-0.004,0.0008,0.0057,0.0099,0.0148,0.0195,0.0213,0.0212,0.0276,0.0249,0.025,0.0241,0.0291,0.0297,0.0302,0.0238,0.0238,0.0238,0,0,-0.0401,-0.0364,-0.0359,-0.0311,-0.0242,-0.019,-0.0181,-0.0098,-0.006,-0.0004,0.0041,0.0094,0.0152,0.0204,0.0234,0.0262,0.028,0.0267,0.0266,0.0315,0.032,0.0325,0.0365,0.0373,0.0271,0.0271,0.0271,0,-0.0435,-0.0409,-0.0348,-0.0322,-0.0287,-0.0207,-0.0186,-0.0129,-0.0042,-0.0008,0.0004,0.012,0.016,0.0233,0.0248,0.0266,0.029,0.0255,0.0317,0.0322,0.0326,0.0367,0.0376,0.0271,0.0271,0.0271,0.0271,0,-0.0454,-0.0431,-0.0424,-0.0364,-0.0317,-0.0288,-0.0197,-0.015,-0.0098,-0.0036,0.0043,0.0116,0.0183,0.021,0.0239,0.0298,0.0303,0.031,0.031,0.0332,0.0373,0.0382,0.0271,0.0271,0.0271,0.0271,0,0,-0.0535,-0.0456,-0.0454,-0.0434,-0.0338,-0.0303,-0.0239,-0.0154,-0.0113,-0.0025,0.0034,0.0128,0.017,0.0205,0.0258,0.0308,0.037,0.0318,0.0321,0.0353,0.0472,0.0547,0.0564,0.0386,0.0388,0.0389,0.0489,0,-0.0571,-0.0557,-0.0488,-0.0459,-0.0443,-0.034,-0.0286,-0.0199,-0.0115,-0.0037,0.006,0.0128,0.0169,0.0202,0.0263,0.0344,0.0393,0.0341,0.0449,0.0452,0.0512,0.0577,0.0477,0.0565,0.0499,0.05,0.0501,0,-0.0613,-0.0597,-0.0588,-0.0511,-0.0492,-0.0453,-0.0353,-0.0293,-0.0157,-0.0093,0.0005,0.0087,0.0194,0.021,0.0363,0.0327,0.0391,0.0451,0.0456,0.053,0.0545,0.0531,0.0584,0.0517,0.0516,0.0515,0.0514,0,-0.0719,-0.066,-0.0662,-0.0636,-0.0538,-0.0507,-0.0449,-0.0322,-0.027,-0.0132,-0.0078,0.0065,0.0136,0.0243,0.0389,0.0371,0.0548,0.054,0.0668,0.0673,0.0612,0.061,0.063,0.063,0.0629,0.0629,0.0629,0,-0.079,-0.0785,-0.0715,-0.0717,-0.0709,-0.0602,-0.0564,-0.0477,-0.0355,-0.0291,-0.0128,-0.0038,0.0145,0.0284,0.0389,0.0579,0.0555,0.0684,0.0715,0.0611,0.0609,0.0578,0.0571,0.0633,0.0632,0.0631,0.0631,0,-0.0901,-0.0856,-0.0853,-0.0779,-0.0762,-0.076,-0.0661,-0.0626,-0.0491,-0.04,-0.0359,-0.0116,0.0092,0.0282,0.0481,0.0591,0.0749,0.0809,0.0682,0.0698,0.0832,0.0824,0.0965,0.0968,0.0971,0.0974,0.0976,0,-0.0955,-0.0972,-0.0934,-0.0951,-0.092,-0.0895,-0.0875,-0.0732,-0.0672,-0.0439,-0.0398,-0.0151,0.0055,0.041,0.0618,0.0845,0.0839,0.0897,0.086,0.0857,0.0872,0.0858,0.0846,0.0767,0.0767,0.0767,0.0768,0,-0.1059,-0.1046,-0.1049,-0.1097,-0.1094,-0.1072,-0.1014,-0.0981,-0.079,-0.0664,-0.0433,-0.0241,0.0142,0.0426,0.0746,0.0842,0.0861,0.0915,0.0946,0.0716,0.0684,0.0695,0.0686,0.077,0.077,0.077,0.0769,0.0769,-0.1135,-0.1175,-0.1194,-0.1238,-0.1244,-0.1229,-0.1213,-0.1102,-0.0987,-0.0764,-0.0533,-0.0239,0.0111,0.0547,0.0766,0.0927,0.0947,0.0962,0.0955,0.0948,0.0926,0.0904,0.1026,0.1027,0.1028,0.1029,0.1029,0,-0.1215,-0.1272,-0.1332,-0.1364,-0.1389,-0.1358,-0.1291,-0.1224,-0.1088,-0.0861,-0.0614,-0.0243,0.0127,0.0452,0.0728,0.0957,0.087,0.096,0.0811,0.0808,0.0806,0.077,0.0832,0.0832,0.0832,0.0833,0,0,-0.1263,-0.1348,-0.1384,-0.1476,-0.1502,-0.1489,-0.1451,-0.132,-0.1151,-0.0915,-0.0701,-0.0367,0.0101,0.0272,0.055,0.0693,0.0661,0.0663,0.0793,0.0578,0.0572,0.0781,0.0722,0,0,0,0,0]}],[{"header":{"parameterUnit":"m.s-1","parameterCategory":2,"la1":30.2991,"la2":30.254,"lo1":-89.0895,"lo2":-89.0444,"dy":0.0017,"dx":0.0017,"nx":28,"ny":28,"refTime":"2024-06-17T21:00:00:Z","depth":"4","parameterNumber":2,"parameterNumberName":"U-component_of_CURRENTS"},"data":[0,0,0,0,0,0,0,0,0,0,0,0,0,0,0,0,0,0,0,0,0,0,0,0,0,0,0,0,0,0,0,0,0,0,0,0,0,0,0,0,0,0,0,0,0,0,0,0,0,0,0,0,0,0,0,0,0,0,-0.1227,-0.1228,0,-0.1238,-0.1238,-0.1238,-0.1261,-0.1262,-0.1262,-0.1263,-0.123,-0.1229,-0.1228,0,0,0,0,0,0,0,0,0,0,0,0,0,-0.1179,-0.118,-0.1227,-0.1228,-0.1228,-0.1238,-0.1238,-0.1238,-0.1261,-0.1262,-0.1263,-0.1263,-0.1231,-0.1229,-0.1227,0,0,0,0,0,0,0,0,0,0,0,0,0,-0.1194,-0.118,-0.1227,-0.1242,-0.1244,-0.1238,-0.1238,-0.1238,-0.1261,-0.1262,-0.1263,-0.1264,-0.1232,-0.1229,-0.1227,-0.1194,0,0,-0.122,-0.1219,0,0,0,0,0,0,0,0,-0.1193,-0.1195,-0.124,-0.1241,-0.1243,-0.1251,-0.121,-0.1222,-0.1261,-0.1252,-0.1263,-0.1264,-0.1234,-0.1232,-0.1229,-0.1192,-0.1191,-0.122,-0.1219,-0.1218,-0.1217,0,0,0,0,0,0,0,-0.1192,-0.1195,-0.1229,-0.124,-0.1242,-0.1232,-0.1236,-0.1212,-0.1235,-0.1253,-0.1255,-0.126,-0.1235,-0.1231,-0.1228,-0.119,-0.122,-0.1218,-0.1217,-0.1216,-0.12,-0.1201,0,0,0,0,0,0,-0.1197,-0.1194,-0.1229,-0.123,-0.1222,-0.1233,-0.1237,-0.1246,-0.1236,-0.1237,-0.1259,-0.1261,-0.1235,-0.1231,-0.1227,-0.1286,-0.1218,-0.1216,-0.1215,-0.1199,-0.12,-0.1201,0,0,0,0,0,0,-0.1195,-0.12,-0.1229,-0.1214,-0.1217,-0.1233,-0.1243,-0.1246,-0.127,-0.1241,-0.1241,-0.1284,-0.1235,-0.123,-0.1236,-0.1281,-0.1215,-0.1213,-0.1198,-0.1199,-0.1201,-0.134,0,0,0,0,0,0,-0.1194,-0.1199,-0.1215,-0.1214,-0.1218,-0.1254,-0.1242,-0.1245,-0.1271,-0.1274,-0.1262,-0.1259,-0.1236,-0.124,-0.1234,-0.1277,-0.1211,-0.1197,-0.1199,-0.12,-0.1334,-0.1345,-0.1355,0,0,0,0,0,-0.1192,-0.1214,-0.1216,-0.122,-0.1237,-0.1256,-0.1258,-0.1269,-0.1271,-0.1293,-0.1284,-0.1261,-0.1246,-0.1239,-0.1232,-0.1275,-0.1196,-0.1198,-0.12,-0.1329,-0.1343,-0.1355,0,0,0,0,0,0,-0.1203,-0.1218,-0.122,-0.1246,-0.1262,-0.1261,-0.1283,-0.1284,-0.1294,-0.13,-0.127,-0.1266,-0.1288,-0.1253,-0.1245,-0.1272,-0.1218,-0.1218,-0.1318,-0.1331,-0.1342,-0.1349,-0.1209,0,0,0,0,0,-0.121,-0.1232,-0.1242,-0.1265,-0.1277,-0.1282,-0.1293,-0.1302,-0.1305,-0.1312,-0.1306,-0.1292,-0.1284,-0.1287,-0.1269,-0.1282,-0.1264,-0.1302,-0.1313,-0.1323,-0.1322,-0.1338,-0.1352,-0.1208,-0.1208,-0.1208,0,0,-0.122,-0.1232,-0.1245,-0.1269,-0.1281,-0.1312,-0.1293,-0.1323,-0.1355,-0.1303,-0.1349,-0.1328,-0.1293,-0.1316,-0.1322,-0.1299,-0.1359,-0.1326,-0.1335,-0.1328,-0.1342,-0.1356,-0.1369,-0.1209,-0.1209,-0.1209,0,0,-0.1249,-0.1264,-0.1293,-0.1313,-0.1341,-0.1347,-0.1364,-0.1382,-0.1402,-0.1428,-0.1404,-0.1413,-0.1401,-0.1395,-0.1386,-0.1438,-0.1412,-0.1435,-0.1505,-0.1523,-0.1535,-0.1546,-0.1569,-0.158,-0.1446,-0.1447,-0.1447,0,-0.1262,-0.1298,-0.1305,-0.134,-0.1367,-0.1371,-0.1413,-0.1431,-0.1451,-0.147,-0.1462,-0.1464,-0.144,-0.1466,-0.1489,-0.1467,-0.1471,-0.1467,-0.1541,-0.155,-0.1559,-0.1579,-0.159,-0.1453,-0.1453,-0.1452,-0.1451,0,-0.1303,-0.1346,-0.1369,-0.1416,-0.1446,-0.1483,-0.151,-0.1545,-0.1564,-0.1576,-0.1614,-0.1586,-0.1587,-0.1588,-0.1556,-0.1608,-0.1592,-0.1553,-0.1517,-0.1583,-0.1599,-0.1608,-0.1463,-0.1461,-0.1459,-0.1457,0,0,-0.1293,-0.1381,-0.1392,-0.1433,-0.1491,-0.1517,-0.1583,-0.1633,-0.1678,-0.1699,-0.1749,-0.1746,-0.1733,-0.1718,-0.1689,-0.1705,-0.178,-0.1666,-0.1664,-0.1706,-0.1835,-0.174,-0.1741,-0.1766,-0.1767,-0.1769,-0.1833,0,-0.1325,-0.1407,-0.1445,-0.1532,-0.1576,-0.1617,-0.1677,-0.1724,-0.1758,-0.1807,-0.1799,-0.1826,-0.1783,-0.1792,-0.1806,-0.1773,-0.1806,-0.1766,-0.1748,-0.1748,-0.1669,-0.1748,-0.1774,-0.1839,-0.1841,-0.1842,-0.1843,0,-0.1341,-0.1401,-0.1487,-0.1596,-0.162,-0.1674,-0.1767,-0.1821,-0.1886,-0.1912,-0.1943,-0.1933,-0.1959,-0.1907,-0.1921,-0.1903,-0.1885,-0.1863,-0.1865,-0.1728,-0.1669,-0.1748,-0.1859,-0.1858,-0.1857,-0.1855,-0.1855,0,-0.1305,-0.1426,-0.1498,-0.1534,-0.1652,-0.1707,-0.1771,-0.1851,-0.1904,-0.1976,-0.2016,-0.2039,-0.2053,-0.204,-0.1996,-0.1972,-0.2005,-0.1961,-0.1868,-0.1861,-0.1866,-0.1853,-0.1986,-0.1986,-0.1986,-0.1986,-0.1985,0,-0.13,-0.1363,-0.1494,-0.1529,-0.1623,-0.1709,-0.1804,-0.1868,-0.1962,-0.2019,-0.2062,-0.2091,-0.2088,-0.2096,-0.2048,-0.1988,-0.2052,-0.1894,-0.1874,-0.1924,-0.1917,-0.1874,-0.186,-0.1988,-0.1987,-0.1987,-0.1987,0,-0.1232,-0.1322,-0.1412,-0.1555,-0.1603,-0.1665,-0.1815,-0.1876,-0.198,-0.2054,-0.2082,-0.2152,-0.2156,-0.2146,-0.2125,-0.2047,-0.1999,-0.1964,-0.2045,-0.2025,-0.1836,-0.1829,-0.1873,-0.187,-0.1868,-0.1866,-0.1864,0,-0.1201,-0.1238,-0.1399,-0.1451,-0.1519,-0.1632,-0.1705,-0.1852,-0.191,-0.2064,-0.208,-0.215,-0.2167,-0.2074,-0.207,-0.2008,-0.1967,-0.1954,-0.1871,-0.1851,-0.1827,-0.1823,-0.1819,-0.1861,-0.186,-0.186,-0.1859,0,-0.1126,-0.1188,-0.1256,-0.1365,-0.1457,-0.1554,-0.1669,-0.1713,-0.1871,-0.1997,-0.2029,-0.2032,-0.2044,-0.2003,-0.198,-0.1922,-0.1964,-0.1929,-0.1932,-0.1854,-0.1836,-0.1814,-0.1812,-0.1851,-0.1852,-0.1853,-0.1853,0,-0.1054,-0.1077,-0.1164,-0.1248,-0.1361,-0.1426,-0.1521,-0.1605,-0.1691,-0.1877,-0.1882,-0.1949,-0.2031,-0.1961,-0.193,-0.188,-0.1834,-0.1765,-0.1776,-0.1785,-0.1719,-0.1682,-0.1647,0,0,0,0,0,-0.0968,-0.0973,-0.1041,-0.1119,-0.1229,-0.1283,-0.1464,-0.1563,-0.1737,-0.1723,-0.1802,-0.1805,-0.1789,-0.1819,-0.1739,-0.1862,-0.1822,-0.1762,-0.1745,-0.1806,-0.1815,-0.1741,0,0,0,0,0,0,-0.0906,-0.0948,-0.0983,-0.0986,-0.1005,-0.1104,-0.1213,-0.1344,-0.1356,-0.1538,-0.1531,-0.1672,-0.1663,-0.1767,-0.1676,-0.1688,-0.1644,-0.1817,-0.1813,-0.1801,-0.1809,-0.1817,-0.1744,0,0,0,0,0]},{"header":{"parameterUnit":"m.s-1","parameterCategory":2,"la1":30.2991,"la2":30.254,"lo1":-89.0895,"lo2":-89.0444,"dy":0.0017,"dx":0.0017,"nx":28,"ny":28,"refTime":"2024-06-17T21:00:00:Z","depth":"4","parameterNumber":3,"parameterNumberName":"V-component_of_CURRENTS"},"data":[0,0,0,0,0,0,0,0,0,0,0,0,0,0,0,0,0,0,0,0,0,0,0,0,0,0,0,0,0,0,0,0,0,0,0,0,0,0,0,0,0,0,0,0,0,0,0,0,0,0,0,0,0,0,0,0,0,0,-0.0032,-0.0031,0,0.0066,0.0067,0.0068,0.0112,0.0111,0.0111,0.0111,0.0193,0.0195,0.0198,0,0,0,0,0,0,0,0,0,0,0,0,0,-0.0128,-0.0127,-0.0032,-0.0031,-0.003,0.0065,0.0067,0.0068,0.0112,0.0111,0.0111,0.0111,0.0192,0.0195,0.0198,0,0,0,0,0,0,0,0,0,0,0,0,0,-0.0065,-0.0127,-0.0032,0.0004,0.0008,0.0065,0.0067,0.0068,0.0112,0.0111,0.0111,0.0111,0.0191,0.0195,0.0198,0.0222,0,0,0.0209,0.021,0,0,0,0,0,0,0,0,-0.0068,-0.0061,-0.0003,0.0001,0.0006,0.0076,0.0063,0.0119,0.0112,0.0072,0.0111,0.0111,0.0153,0.0159,0.0178,0.0226,0.023,0.0209,0.0211,0.0212,0.0213,0,0,0,0,0,0,0,-0.0073,-0.0065,0.0006,-0.0002,0.0004,0.0033,0.0041,0.0074,0.0112,0.0075,0.0079,0.009,0.0155,0.0175,0.018,0.0231,0.0209,0.0212,0.0214,0.0215,0.031,0.0311,0,0,0,0,0,0,-0.0087,-0.0069,0.0003,0.0009,-0.0032,0.0035,0.0044,0.0054,0.0112,0.0121,0.009,0.0092,0.0169,0.0176,0.0183,0.0223,0.0212,0.0216,0.0218,0.031,0.031,0.0311,0,0,0,0,0,0,-0.0089,-0.0081,-0.0001,-0.0027,-0.0015,0.0036,0.0047,0.0056,0.0075,0.0123,0.0132,0.01,0.0169,0.0179,0.0219,0.0226,0.0217,0.022,0.0309,0.031,0.031,0.0297,0,0,0,0,0,0,-0.0093,-0.0083,-0.0083,-0.0029,-0.0014,0.0029,0.0048,0.0058,0.0082,0.0085,0.0134,0.0142,0.017,0.0214,0.0223,0.0231,0.0223,0.0308,0.0309,0.031,0.0297,0.0297,0.0298,0,0,0,0,0,-0.0096,-0.0095,-0.0084,-0.0075,-0.0015,0.0029,0.0039,0.0075,0.0082,0.0091,0.013,0.014,0.0225,0.0218,0.0228,0.0236,0.0308,0.0309,0.031,0.0297,0.0297,0.0298,0,0,0,0,0,0,-0.0133,-0.0088,-0.0075,-0.006,-0.0021,0.0037,0.0046,0.0072,0.011,0.0109,0.0153,0.0164,0.0199,0.0221,0.0211,0.0266,0.0266,0.0269,0.0252,0.0253,0.0253,0.0239,0.0226,0,0,0,0,0,-0.0143,-0.0134,-0.0082,-0.0071,-0.0056,-0.0006,0.0015,0.004,0.0082,0.0099,0.0137,0.0175,0.0212,0.0234,0.0266,0.0301,0.032,0.0311,0.0312,0.0312,0.0307,0.035,0.0354,0.0314,0.0314,0.0314,0,0,-0.0155,-0.0129,-0.0124,-0.0079,-0.005,-0.0026,0.0006,0.0033,0.0057,0.0101,0.014,0.0176,0.0221,0.026,0.0277,0.0279,0.0332,0.0313,0.0313,0.0308,0.0351,0.0355,0.0359,0.0315,0.0315,0.0315,0,0,-0.0176,-0.0153,-0.0154,-0.0124,-0.0082,-0.0046,-0.0041,0.0016,0.0044,0.0088,0.0124,0.0169,0.0223,0.0265,0.029,0.0312,0.0329,0.0316,0.0312,0.0354,0.0358,0.0361,0.0385,0.0391,0.032,0.032,0.032,0,-0.0196,-0.0186,-0.0146,-0.0134,-0.0114,-0.0059,-0.005,-0.0008,0.0057,0.0083,0.0093,0.0189,0.0227,0.0285,0.0294,0.0313,0.033,0.0307,0.0354,0.0358,0.0361,0.0386,0.0392,0.0319,0.0319,0.0319,0.0319,0,-0.0213,-0.0204,-0.0201,-0.0171,-0.014,-0.0125,-0.0063,-0.003,0.0008,0.0055,0.0116,0.018,0.0236,0.0258,0.0284,0.0332,0.0333,0.0346,0.0351,0.0364,0.0389,0.0396,0.0318,0.0319,0.0319,0.0319,0,0,-0.0263,-0.0225,-0.0225,-0.022,-0.0161,-0.014,-0.0097,-0.004,-0.0013,0.0057,0.0099,0.0178,0.0215,0.0246,0.0292,0.0334,0.0379,0.0347,0.035,0.0366,0.0458,0.0438,0.0443,0.0398,0.04,0.0401,0.0463,0,-0.0293,-0.0298,-0.0256,-0.0249,-0.0246,-0.0178,-0.0144,-0.0083,-0.0021,0.0036,0.0118,0.0171,0.0211,0.0237,0.029,0.0359,0.0396,0.036,0.0446,0.0448,0.0425,0.0451,0.0404,0.0468,0.0469,0.0471,0.0471,0,-0.0325,-0.0325,-0.0336,-0.0299,-0.029,-0.0271,-0.0209,-0.0168,-0.0068,-0.002,0.006,0.0128,0.0217,0.0237,0.0364,0.0337,0.039,0.044,0.0444,0.0433,0.0441,0.0454,0.0484,0.0483,0.0482,0.0481,0.0481,0,-0.0396,-0.0376,-0.0392,-0.038,-0.0329,-0.0316,-0.0284,-0.0195,-0.0163,-0.0057,-0.002,0.0101,0.0156,0.0251,0.0368,0.0365,0.0495,0.0504,0.0534,0.0533,0.0537,0.0533,0.0576,0.0576,0.0576,0.0576,0.0576,0,-0.0444,-0.0454,-0.0433,-0.0442,-0.0457,-0.039,-0.0379,-0.032,-0.0238,-0.0199,-0.0065,-0.0004,0.0161,0.0267,0.0361,0.0472,0.0492,0.0535,0.0552,0.0529,0.0524,0.0542,0.0537,0.0578,0.0578,0.0577,0.0577,0,-0.0509,-0.0498,-0.0519,-0.0495,-0.0495,-0.0506,-0.0463,-0.0447,-0.0355,-0.0297,-0.0266,-0.0084,0.0061,0.0218,0.0381,0.0453,0.0564,0.0591,0.0548,0.0561,0.0573,0.0567,0.0631,0.0631,0.0631,0.0631,0.0631,0,-0.0538,-0.0562,-0.0581,-0.0611,-0.0605,-0.0611,-0.0616,-0.053,-0.0498,-0.0343,-0.0319,-0.0152,-0.0025,0.0192,0.036,0.0542,0.056,0.0612,0.0601,0.057,0.0581,0.0575,0.0569,0.0631,0.0631,0.0631,0.0631,0,-0.0594,-0.0609,-0.0629,-0.0705,-0.0732,-0.0746,-0.0733,-0.0718,-0.0599,-0.0519,-0.0363,-0.0198,-0.0029,0.0173,0.0319,0.045,0.0583,0.0612,0.0613,0.0603,0.0571,0.058,0.0574,0.0631,0.0631,0.0631,0.0631,0,-0.0634,-0.0672,-0.072,-0.0774,-0.0829,-0.0852,-0.0834,-0.0769,-0.0717,-0.0526,-0.0479,-0.0249,-0.0097,0.0126,0.0263,0.0394,0.0421,0.045,0.046,0.0462,0.04,0.0333,0.0337,0,0,0,0,0,-0.0663,-0.0712,-0.0782,-0.0837,-0.0896,-0.0916,-0.0895,-0.0852,-0.0739,-0.0654,-0.0557,-0.0391,-0.0121,0.0021,0.014,0.0239,0.0424,0.0382,0.0455,0.0629,0.0629,0.0584,0,0,0,0,0,0,-0.0686,-0.0757,-0.079,-0.0879,-0.0926,-0.0972,-0.0961,-0.0885,-0.0812,-0.0679,-0.0541,-0.0391,-0.0141,-0.0211,0.0129,0.018,0.0237,0.0532,0.0534,0.0629,0.0629,0.0629,0.0583,0,0,0,0,0]}]]